RH
50 63 78 92 97 97 92 94 94 91 88 88 86 99 99 96 97 93 90 88 82 86 90 96 89 72 70 46 37 31 31 33 34 29 25 24 26 30 30 28 24 19 18 15 10 28 25 62 78
43 28 59 68 94 98 98 96 98 93 99 98 88 90 84 92 86 82 88 74 68 58 54 51 45 42 43 30 28 29 31 34 33 22 21 21 21 27 30 30 28 22 22 16 10 36 38 50 73
17 51 74 82 89 99 86 88 88 87 89 99 92 95 86 81 83 83 72 67 66 49 36 38 34 28 25 25 32 32 34 32 28 27 27 20 21 28 33 35 35 29 22 18 17 23 46 63 69
6 13 34 100 96 78 80 72 66 74 84 96 96 84 81 77 76 72 67 64 53 46 35 37 38 33 24 19 27 29 30 29 30 27 21 17 26 38 38 37 38 43 37 23 24 31 30 52 68
32 55 95 40 22 49 40 39 47 64 74 86 78 68 63 61 65 63 59 45 20 22 34 40 37 36 29 18 18 20 25 26 26 25 22 21 32 45 56 58 57 52 45 39 31 30 38 31 39
71 99 96 87 12 10 12 18 40 47 64 85 74 61 52 47 48 45 30 29 33 33 26 35 38 28 19 17 17 21 27 32 35 49 61 47 44 57 58 59 62 54 53 52 48 41 37 27 36
97 80 93 87 10 5 5 8 64 36 51 60 67 57 51 42 32 26 31 41 38 26 24 26 29 22 18 19 22 29 36 42 55 48 45 56 63 67 63 45 54 60 66 81 84 65 64 49 42
97 91 91 90 98 6 5 8 10 22 36 48 50 43 41 44 42 36 38 37 34 22 21 32 30 30 23 24 34 38 42 50 51 42 39 37 40 47 51 55 49 66 73 73 74 76 66 70 72
71 84 96 97 91 70 4 5 8 8 14 19 18 32 32 43 43 38 37 32 25 26 17 31 36 37 25 25 27 33 26 38 38 26 28 37 41 40 30 25 22 28 30 33 43 38 45 47 42
88 94 97 88 97 94 6 19 4 8 9 9 10 16 24 33 30 31 25 21 22 22 13 8 35 29 20 41 30 21 14 14 16 28 34 30 18 8 4 2 2 2 2 2 2 2 2 4 4
86 97 94 90 89 98 30 41 3 5 5 6 7 10 22 12 10 14 21 16 12 12 18 38 33 20 25 25 18 13 9 15 37 41 41 32 20 5 9 4 4 2 7 36 8 2 4 2 2
51 99 98 99 61 98 75 76 5 3 18 5 6 8 10 14 14 17 15 11 11 13 19 10 14 25 33 27 13 12 18 27 38 26 43 45 19 12 17 17 8 45 5 4 4 4 4 5 5
63 90 86 88 73 87 92 66 7 4 4 5 2 5 10 12 13 12 10 7 13 16 11 19 24 22 29 27 10 24 28 23 30 38 21 26 54 31 36 18 7 8 12 10 10 9 7 6 7
81 81 80 84 83 25 97 75 5 4 4 5 1 4 8 13 14 11 10 14 13 10 9 8 15 26 20 26 11 14 22 19 21 16 14 14 45 49 40 32 16 10 9 8 9 15 10 10 10
75 75 74 52 86 28 38 32 4 4 4 4 4 4 5 14 13 13 12 10 8 9 6 4 20 40 21 12 12 6 6 17 16 22 9 25 64 27 23 43 25 19 14 13 18 21 12 12 11
72 58 78 84 79 44 5 44 3 3 4 3 4 7 4 5 6 5 5 5 5 8 7 2 8 7 14 11 8 6 10 11 20 19 40 33 29 19 27 24 13 22 22 45 25 14 13 12 14
74 74 78 97 44 61 6 97 41 9 4 3 3 4 5 4 4 4 4 2 2 2 3 4 7 21 1 4 14 8 6 41 36 37 30 15 36 19 26 26 20 17 23 20 14 10 9 8 10
81 76 76 92 74 69 5 93 46 23 12 2 3 3 4 4 5 4 3 1 2 3 4 4 4 6 3 2 47 52 43 30 8 7 20 24 26 14 26 20 19 12 9 8 10 8 8 7 8
73 73 70 79 93 26 80 92 39 38 21 4 2 3 3 3 4 3 3 3 3 4 5 5 4 2 2 59 54 9 18 5 8 7 20 13 11 9 24 15 13 15 7 6 6 6 7 6 8
73 71 76 87 82 84 82 94 97 69 34 15 3 2 4 5 4 4 3 3 3 3 3 3 3 3 4 22 11 4 6 5 5 6 9 17 14 14 14 16 21 8 7 7 6 6 6 6 8
68 69 71 74 77 98 91 97 96 94 57 37 21 10 5 6 8 10 8 5 3 3 3 2 3 3 3 19 28 26 30 13 14 6 6 7 7 8 8 8 10 9 7 6 7 7 6 6 7
61 71 72 70 91 98 82 84 99 76 87 36 36 37 30 22 19 17 24 20 23 14 5 3 3 3 4 13 18 21 28 7 7 7 7 8 11 9 9 9 9 8 7 6 7 7 6 7 7
44 65 71 73 76 88 88 75 96 98 86 79 40 42 34 31 42 53 54 51 42 31 18 6 4 4 4 6 20 16 12 10 8 7 8 11 13 10 10 10 8 6 5 4 4 5 6 7 7
26 65 69 64 68 72 83 86 73 90 97 92 82 55 44 45 51 53 60 63 57 50 37 23 8 6 5 6 8 8 16 13 11 14 14 18 12 10 13 13 14 14 14 16 8 1 5 8 8
28 60 68 64 62 60 70 83 90 86 86 85 85 99 86 61 51 54 56 56 54 33 32 38 50 38 14 6 6 7 10 13 21 25 22 15 11 11 12 13 15 17 18 21 36 19 2 7 8
7 31 55 65 60 59 64 67 66 91 80 87 94 80 90 80 57 71 60 58 41 30 29 22 25 45 48 23 9 11 12 22 31 25 16 11 12 21 42 48 38 43 41 39 53 53 19 3 5
21 29 46 56 61 57 58 62 80 91 91 81 79 76 81 83 62 75 58 53 48 45 23 22 19 19 35 35 18 17 31 34 23 14 16 18 34 55 67 68 66 72 76 57 77 76 61 48 14
6 27 48 58 55 57 54 58 67 73 67 76 84 77 80 88 63 71 57 59 56 60 48 22 18 17 13 22 36 36 28 20 14 25 24 28 65 55 66 63 96 94 81 76 74 87 75 70 57
5 8 49 55 57 52 57 58 55 69 92 72 75 71 74 87 62 60 60 60 59 64 58 35 29 22 10 9 22 22 18 20 32 30 46 30 33 53 56 78 90 89 87 98 96 85 68 80 73
40 15 32 54 58 56 53 53 65 65 70 72 78 75 79 89 70 58 63 60 53 51 52 59 31 16 7 10 14 18 25 38 33 50 44 37 45 43 67 89 73 63 61 87 89 92 81 100 84
Wind_Speed
10 11 13 9 12 16 12 10 8 8 7 6 9 15 13 17 16 14 11 12 11 14 14 11 9 13 14 15 16 16 15 15 14 11 9 7 6 6 5 6 6 6 5 5 8 8 7 9 7
10 14 9 9 15 10 5 6 11 9 11 8 10 10 13 11 13 10 9 11 13 15 15 15 15 16 16 15 14 14 12 11 11 11 8 6 4 4 3 5 4 5 7 8 8 9 7 7 6
10 11 17 19 8 7 7 7 8 8 8 9 9 11 10 8 10 11 12 11 12 13 14 14 14 14 14 12 11 10 9 9 9 8 6 4 4 2 3 4 4 5 7 7 7 7 6 5 4
13 16 18 10 5 7 4 6 6 5 8 7 7 7 5 6 7 11 10 11 12 12 11 12 11 11 11 10 10 10 8 8 7 5 4 4 4 3 4 4 6 6 8 6 4 4 5 5 3
22 29 16 3 4 5 5 7 7 5 5 7 8 6 8 6 8 10 10 11 11 11 11 9 8 8 8 9 10 8 7 7 6 5 4 5 5 4 5 5 6 8 8 6 4 3 2 3 3
21 18 14 4 2 4 4 5 7 8 8 9 8 7 8 8 9 10 11 11 11 10 8 6 6 8 9 9 9 8 7 8 8 7 7 6 6 5 3 3 3 6 6 6 5 4 2 1 1
18 18 8 3 2 3 4 5 5 8 9 8 7 7 9 9 7 8 11 11 8 6 6 7 8 9 9 10 9 9 9 10 11 11 11 10 8 6 6 6 4 3 4 3 3 2 1 1 1
20 14 2 8 4 1 5 6 8 8 8 8 7 6 9 11 8 7 7 6 4 5 7 9 8 8 10 11 11 11 10 10 10 11 11 11 10 10 8 7 7 6 5 5 5 3 2 1 1
24 24 5 4 14 6 8 8 8 9 10 10 10 6 5 11 10 7 6 3 4 5 7 8 10 11 12 11 10 10 10 9 10 11 13 13 12 11 11 10 10 8 7 8 6 6 6 6 5
14 20 13 13 12 6 6 7 7 7 8 8 9 8 5 11 12 9 6 5 5 5 7 11 13 12 11 10 9 8 9 9 11 13 13 14 13 14 14 15 14 13 12 12 12 11 11 11 10
7 8 14 6 12 7 8 7 7 6 6 7 6 9 9 9 11 9 6 5 7 9 12 12 11 11 10 9 9 7 8 10 11 12 13 13 13 13 13 13 14 13 13 14 14 13 13 12 12
12 7 4 6 10 9 7 9 7 7 6 8 8 7 12 12 12 12 10 10 10 12 12 11 10 10 9 9 9 8 8 9 10 10 10 11 11 11 11 10 13 17 11 13 13 12 12 11 11
13 11 8 9 8 7 12 10 8 7 6 8 9 9 10 13 12 11 10 10 13 13 12 11 9 8 8 9 9 9 8 8 7 6 7 9 9 9 8 8 10 10 8 10 10 10 9 8 8
12 11 11 10 8 13 13 10 7 7 6 6 6 8 8 11 11 12 12 12 14 13 12 10 9 8 8 8 8 8 8 5 5 3 4 6 7 6 5 5 5 6 6 6 7 8 8 10 10
22 15 10 12 11 15 14 10 7 7 7 5 5 6 7 12 13 14 14 15 15 13 11 10 9 7 7 6 6 5 5 6 4 3 3 3 3 4 3 3 4 5 6 6 7 8 8 10 11
21 16 11 12 16 17 15 8 6 7 7 7 7 6 7 10 13 12 12 12 12 11 10 9 8 6 4 3 2 2 2 3 3 3 3 2 2 3 4 4 4 6 7 8 9 10 12 13 13
24 17 12 20 20 18 15 13 10 9 8 8 8 7 7 8 10 11 11 11 10 8 8 8 7 5 5 3 2 3 3 2 2 2 2 1 2 2 3 5 7 9 11 11 11 13 13 14 14
21 18 16 17 23 23 19 11 19 12 10 10 9 8 9 8 8 9 9 10 9 8 8 7 7 7 8 7 7 6 4 2 1 1 3 3 1 4 4 6 8 10 12 14 14 15 14 14 14
19 17 18 18 23 26 19 16 15 14 12 11 10 9 9 10 9 9 9 9 10 10 10 10 10 9 8 7 6 3 3 4 4 5 4 5 6 8 9 11 13 13 14 16 16 15 14 14 14
25 23 20 16 30 21 19 16 17 17 13 12 13 12 10 8 8 9 10 11 12 13 12 12 11 10 9 9 8 7 7 6 6 7 8 8 9 11 16 18 17 17 16 16 16 17 15 15 15
30 27 23 21 27 18 22 19 21 24 17 16 15 13 13 11 9 9 9 11 12 12 13 13 11 11 11 10 10 9 9 9 9 10 12 12 14 17 22 19 17 18 19 17 16 18 17 17 17
33 29 26 24 33 25 25 21 28 23 24 20 18 15 14 12 12 12 12 13 13 14 12 12 12 13 12 11 12 13 11 12 14 15 17 19 20 22 22 20 19 18 20 18 18 18 19 20 19
35 28 28 27 30 25 25 27 22 24 23 24 19 15 15 16 17 16 15 15 13 14 14 15 13 15 15 14 14 14 14 16 18 21 22 23 24 21 20 19 19 19 20 21 21 21 19 19 20
34 31 31 30 31 34 31 32 26 30 24 27 22 20 20 19 19 19 17 12 14 16 16 17 17 18 19 18 16 16 17 19 20 22 24 21 21 20 19 19 20 21 22 23 24 24 23 20 21
44 37 35 36 38 39 29 37 27 27 26 22 21 20 24 23 21 20 18 17 15 12 15 18 19 19 21 20 19 19 19 20 21 24 22 21 20 21 22 24 24 25 25 24 25 26 25 24 23
51 46 43 41 35 35 32 36 34 31 24 20 21 22 20 33 26 23 17 18 16 14 13 13 15 20 21 22 22 21 21 21 24 21 20 20 19 18 20 25 24 29 32 30 25 26 26 26 27
46 54 43 36 31 34 32 32 30 29 31 32 30 24 25 32 24 23 14 14 10 11 14 15 17 17 19 20 21 20 21 23 19 18 16 15 17 19 26 29 29 32 35 32 38 29 27 28 31
51 43 48 49 46 40 34 32 29 33 36 31 31 27 23 25 28 26 21 16 14 14 15 13 15 19 19 20 21 22 20 18 15 14 17 16 11 22 18 27 30 34 29 30 35 34 29 30 29
46 56 48 46 47 45 40 35 32 28 25 27 28 21 24 24 26 24 19 15 16 19 18 16 16 18 19 18 19 18 17 13 14 13 10 16 13 20 22 30 32 30 35 36 36 36 33 33 32
38 43 54 48 53 49 45 39 29 33 28 27 28 30 21 22 28 27 26 24 20 20 20 24 19 17 17 19 21 18 14 13 12 11 17 19 17 19 25 28 28 24 28 22 22 25 37 39 34
Wind_Direction
93 105 102 120 37 35 129 148 149 196 171 156 116 114 127 128 127 121 116 107 109 122 126 117 115 108 115 115 111 111 119 127 123 125 131 126 112 90 78 82 79 86 106 106 111 115 118 115 98
101 94 151 130 55 22 129 139 137 142 137 144 132 135 147 136 120 112 102 96 113 115 112 109 104 102 111 108 110 118 123 126 133 137 126 116 102 77 77 78 86 96 97 110 115 126 124 116 106
102 127 75 71 347 198 173 184 168 159 146 136 146 162 138 143 121 101 102 106 112 107 105 105 103 108 107 105 112 116 130 134 141 137 135 127 114 111 86 80 85 83 87 96 114 123 124 125 124
117 99 82 80 145 188 179 163 161 155 140 145 142 159 164 148 128 114 113 114 111 110 106 104 106 108 107 108 115 125 138 139 141 138 131 130 132 120 76 67 70 70 70 73 105 129 137 146 148
97 79 62 355 148 146 144 135 128 158 159 150 151 150 140 135 126 125 122 119 114 110 100 98 107 112 114 117 123 130 140 146 133 124 117 112 131 112 87 71 71 72 71 76 77 76 134 176 185
75 98 118 307 166 170 146 145 136 148 152 156 157 148 125 124 130 135 129 121 112 96 90 107 120 126 130 124 117 125 126 114 104 91 105 109 125 121 82 67 49 76 82 75 74 66 65 70 224
104 90 103 227 70 152 156 139 139 151 148 160 165 166 143 130 128 137 128 122 108 76 101 121 140 142 132 123 121 115 112 115 112 95 98 96 101 92 74 68 64 80 92 67 73 94 76 57 45
110 96 161 197 138 279 147 137 147 163 164 149 164 175 161 143 135 132 137 134 109 103 124 143 142 139 129 126 121 114 114 113 110 100 95 91 86 86 84 75 71 73 84 82 66 60 65 23 331
120 131 209 119 206 247 165 150 152 162 170 178 177 200 240 171 158 161 180 179 129 120 137 136 133 127 122 115 107 107 107 105 100 94 86 84 80 76 73 76 76 73 65 60 61 56 53 46 40
131 139 125 196 355 246 182 159 157 166 175 181 185 181 204 206 181 184 198 176 147 132 139 139 134 128 119 111 106 103 103 97 90 87 86 81 80 79 74 69 69 68 65 64 69 66 59 55 45
139 289 120 285 183 260 223 177 163 160 175 175 205 190 186 205 182 166 160 172 159 138 140 135 130 123 113 113 108 98 91 91 89 86 85 85 81 78 72 67 67 68 69 72 64 66 63 60 52
179 228 194 195 228 173 210 185 176 178 189 186 169 199 195 188 181 172 177 179 158 143 140 131 120 111 108 100 93 93 91 88 88 83 88 86 86 80 72 65 72 52 54 66 64 62 55 50 50
214 213 228 242 245 187 234 206 193 192 199 199 169 168 196 194 187 181 174 163 150 144 140 126 119 107 100 96 97 95 92 86 85 80 88 92 88 75 70 62 61 71 53 52 59 58 50 35 33
224 243 223 235 235 229 196 217 212 206 211 201 182 153 173 182 174 171 161 151 150 151 144 127 123 113 105 102 93 90 96 102 108 102 93 90 85 76 68 48 37 37 25 25 26 24 22 10 7
208 229 231 226 211 209 192 206 213 200 198 180 180 149 166 171 168 169 161 159 162 158 149 146 143 139 123 113 105 90 96 129 133 140 127 107 67 65 51 27 14 12 1 354 358 360 4 5 356
215 211 225 248 205 208 205 236 223 208 189 179 169 150 146 163 161 160 163 168 168 159 160 164 163 159 144 129 123 118 85 105 154 139 150 121 95 66 44 29 6 7 345 343 341 342 348 348 348
207 214 217 217 247 212 189 268 208 212 194 183 166 156 152 154 157 162 171 170 172 173 183 195 201 214 219 209 239 272 275 288 151 114 87 84 72 41 22 360 356 352 343 338 330 329 332 332 331
204 213 213 245 267 222 190 187 230 215 205 187 175 164 155 163 177 182 185 187 190 198 209 216 235 240 240 248 264 275 263 237 260 20 350 334 15 356 348 345 340 340 338 328 322 317 316 317 316
202 215 221 213 246 237 216 199 229 227 222 201 178 179 176 168 174 194 203 206 213 218 227 236 246 254 253 263 266 242 236 243 268 288 306 317 330 326 324 330 321 321 323 320 315 309 304 301 300
200 211 219 225 230 215 217 223 235 241 227 214 200 187 183 188 194 195 204 217 225 228 234 245 248 243 244 255 256 245 254 258 273 285 295 299 298 307 316 314 307 306 304 304 307 301 299 296 293
213 204 213 217 246 205 215 214 227 237 228 211 205 204 197 198 208 221 223 224 228 231 236 244 249 249 250 257 260 252 259 270 274 277 284 288 294 302 308 307 305 298 295 295 297 301 296 295 291
216 207 204 213 224 214 225 223 228 237 245 229 215 211 216 214 220 230 237 243 242 243 246 241 236 240 240 245 251 252 257 269 277 282 288 291 292 296 297 294 293 293 292 289 287 289 289 291 295
215 214 210 212 229 249 225 232 244 213 241 261 232 218 223 229 232 233 242 251 250 250 244 245 243 244 244 245 248 259 272 278 284 288 290 295 297 299 300 301 302 300 295 290 284 283 278 283 285
218 213 218 222 221 230 227 230 223 248 202 237 253 248 233 234 234 237 238 243 259 257 253 248 243 243 246 248 252 262 270 281 288 293 295 297 301 299 298 295 291 292 293 293 291 282 271 265 271
219 214 216 219 226 229 225 232 219 224 238 251 225 238 277 262 236 242 249 248 250 261 263 258 252 256 256 251 252 258 269 277 286 295 292 297 301 300 300 300 303 302 301 295 292 289 277 267 267
224 219 217 219 221 230 229 228 234 235 221 225 227 230 246 269 244 251 264 271 269 253 272 268 255 250 252 249 253 261 269 274 291 287 289 294 300 301 309 314 316 319 310 301 294 288 285 281 277
219 222 220 225 234 234 233 240 232 229 231 236 237 240 241 251 238 257 253 258 267 285 289 269 259 253 249 247 251 259 268 280 282 285 287 301 316 323 315 346 310 309 306 301 299 296 284 284 284
221 224 219 218 223 229 232 230 237 239 236 227 233 230 241 239 242 248 265 255 280 284 292 290 272 263 256 245 247 256 264 266 266 279 303 314 334 353 353 339 339 343 303 302 293 288 292 288 284
226 215 220 227 226 226 230 230 233 243 231 227 227 234 239 245 244 251 245 252 266 275 283 291 277 272 262 243 239 244 249 256 277 299 326 338 344 337 341 345 342 334 329 288 296 269 287 284 285
226 227 219 220 225 228 226 230 232 223 248 229 213 209 210 250 264 247 249 259 261 276 282 286 269 269 252 233 231 232 242 267 281 306 329 333 343 334 348 342 338 344 334 349 338 298 292 288 285